N558BA LTBW-LTBW

Flight info

Callsign N558BA
Flight time N/A
Altitude 1000
Route CEK
Aircraft A5/L-SFG/C

Departure

Time 2026-04-23 16:07
Airport İstanbul Hezarfen Airfield (LTBW)

Arrival

Time N/A
Airport İstanbul Hezarfen Airfield (LTBW)
Time Latitude Longitude Altitude Speed Heading
2026-04-23 16:04 41.10383 28.55013 45 ft 0 kts 69°
2026-04-23 16:05 41.10386 28.55016 45 ft 0 kts
2026-04-23 16:05 41.10418 28.54969 45 ft 14 kts 246°
2026-04-23 16:06 41.10342 28.54825 39 ft 22 kts 234°
2026-04-23 16:06 41.10247 28.54647 29 ft 24 kts 233°
2026-04-23 16:06 41.10168 28.54496 21 ft 12 kts 239°
2026-04-23 16:06 41.10245 28.54566 26 ft 52 kts 54°
2026-04-23 16:07 41.10517 28.55117 328 ft 76 kts 66°
2026-04-23 16:07 41.10547 28.55845 621 ft 85 kts 105°
2026-04-23 16:07 41.10400 28.56626 909 ft 87 kts 121°
2026-04-23 16:07 41.09992 28.57212 1126 ft 86 kts 152°
2026-04-23 16:08 41.09396 28.57313 1297 ft 91 kts 183°
2026-04-23 16:08 41.08753 28.57307 1468 ft 93 kts 179°
2026-04-23 16:08 41.08108 28.57308 1690 ft 95 kts 180°
2026-04-23 16:08 41.07429 28.57324 1901 ft 98 kts 179°
2026-04-23 16:09 41.06746 28.57341 2070 ft 100 kts 178°
2026-04-23 16:09 41.06060 28.57433 2292 ft 98 kts 164°
2026-04-23 16:09 41.05501 28.57943 2470 ft 103 kts 129°
2026-04-23 16:09 41.05100 28.58743 2574 ft 105 kts 122°
2026-04-23 16:10 41.04725 28.59572 2699 ft 106 kts 121°
2026-04-23 16:10 41.04347 28.60408 2828 ft 106 kts 120°
2026-04-23 16:10 41.04005 28.61285 2866 ft 109 kts 114°
2026-04-23 16:10 41.03683 28.62198 2933 ft 111 kts 114°
2026-04-23 16:11 41.03411 28.63120 3050 ft 111 kts 109°
2026-04-23 16:11 41.03144 28.64078 3076 ft 112 kts 110°
2026-04-23 16:11 41.02876 28.65051 3080 ft 112 kts 108°
2026-04-23 16:11 41.02637 28.66040 3058 ft 113 kts 107°
2026-04-23 16:12 41.02402 28.67038 3019 ft 113 kts 107°
2026-04-23 16:12 41.02142 28.68016 3008 ft 114 kts 109°
2026-04-23 16:12 41.01856 28.69006 2901 ft 117 kts 108°
2026-04-23 16:12 41.01574 28.70006 2845 ft 114 kts 108°
2026-04-23 16:13 41.01314 28.70947 2952 ft 109 kts 108°
2026-04-23 16:13 41.00908 28.72897 3042 ft 109 kts 102°
2026-04-23 16:13 41.00744 28.73881 3085 ft 110 kts 98°
2026-04-23 16:14 41.00594 28.74875 3125 ft 110 kts 101°
2026-04-23 16:14 41.00428 28.75857 3174 ft 109 kts 99°
2026-04-23 16:14 41.00281 28.76857 3151 ft 114 kts 98°
2026-04-23 16:14 41.00119 28.77889 3078 ft 115 kts 102°
2026-04-23 16:15 40.99924 28.78909 3026 ft 115 kts 103°
2026-04-23 16:15 40.99723 28.79932 2935 ft 115 kts 103°
2026-04-23 16:15 40.99526 28.80960 2863 ft 114 kts 101°
2026-04-23 16:15 40.99346 28.81976 2774 ft 115 kts 101°
2026-04-23 16:16 40.99177 28.83015 2685 ft 114 kts 99°
2026-04-23 16:16 40.99027 28.84066 2582 ft 115 kts 99°
2026-04-23 16:16 40.98903 28.85090 2513 ft 115 kts 96°
2026-04-23 16:16 40.98812 28.86120 2481 ft 112 kts 94°
2026-04-23 16:17 40.98759 28.87159 2423 ft 112 kts 91°
2026-04-23 16:17 40.98720 28.88200 2325 ft 114 kts 92°
2026-04-23 16:17 40.98677 28.89243 2235 ft 114 kts 91°
2026-04-23 16:17 40.98632 28.90285 2159 ft 113 kts 92°
2026-04-23 16:18 40.98585 28.91325 2077 ft 113 kts 92°
2026-04-23 16:18 40.98549 28.92355 2044 ft 109 kts 91°
2026-04-23 16:18 40.98529 28.93386 1924 ft 114 kts 90°
2026-04-23 16:18 40.98527 28.94444 1770 ft 116 kts 89°
2026-04-23 16:19 40.98538 28.95502 1685 ft 114 kts 88°
2026-04-23 16:19 40.98622 28.96536 1454 ft 115 kts 75°
2026-04-23 16:19 40.98882 28.97540 1194 ft 117 kts 60°
2026-04-23 16:19 40.99380 28.98372 955 ft 117 kts 40°
2026-04-23 16:20 41.00067 28.98943 727 ft 119 kts 26°
2026-04-23 16:20 41.00804 28.99363 502 ft 101 kts 18°
2026-04-23 16:20 41.01427 28.99624 213 ft 94 kts 14°
2026-04-23 16:20 41.02093 28.99940 55 ft 104 kts 27°
2026-04-23 16:21 41.02600 29.00621 24 ft 111 kts 51°
2026-04-23 16:21 41.03077 29.01465 3 ft 116 kts 53°
2026-04-23 16:21 41.03556 29.02291 12 ft 114 kts 52°
2026-04-23 16:21 41.04055 29.03102 14 ft 114 kts 49°
2026-04-23 16:22 41.04656 29.03764 21 ft 112 kts 35°
2026-04-23 16:22 41.05292 29.04357 48 ft 111 kts 33°
2026-04-23 16:22 41.05983 29.04811 34 ft 113 kts 20°
2026-04-23 16:22 41.06471 29.05062 6 ft 113 kts 21°
2026-04-23 16:23 41.07204 29.05423 13 ft 112 kts 20°
2026-04-23 16:23 41.07851 29.05953 20 ft 110 kts 41°
2026-04-23 16:23 41.08553 29.06255 10 ft 110 kts 360°
2026-04-23 16:23 41.09314 29.06227 16 ft 110 kts 360°
2026-04-23 16:24 41.10060 29.06423 4 ft 110 kts 23°
2026-04-23 16:24 41.10654 29.06944 1 ft 104 kts 49°
2026-04-23 16:24 41.10986 29.07471 2 ft 57 kts 51°
2026-04-23 16:24 41.11186 29.07808 -2 ft 30 kts 51°
2026-04-23 16:25 41.11297 29.07950 -2 ft 19 kts 27°
2026-04-23 16:25 41.11405 29.08030 -2 ft 17 kts 30°
2026-04-23 16:25 41.11495 29.08102 -2 ft 13 kts 36°
2026-04-23 16:25 41.11667 29.08186 10 ft 62 kts 11°
2026-04-23 16:26 41.12258 29.08149 78 ft 103 kts 348°
2026-04-23 16:26 41.12946 29.07779 105 ft 109 kts 334°
2026-04-23 16:26 41.13616 29.07313 139 ft 109 kts 335°
2026-04-23 16:26 41.14330 29.06938 100 ft 111 kts 345°
2026-04-23 16:27 41.15076 29.06750 66 ft 111 kts 358°
2026-04-23 16:27 41.15836 29.06889 10 ft 112 kts 22°
2026-04-23 16:27 41.16522 29.07314 26 ft 108 kts 30°
2026-04-23 16:27 41.17137 29.07876 42 ft 107 kts 37°
2026-04-23 16:28 41.17728 29.08476 53 ft 108 kts 40°
2026-04-23 16:28 41.18295 29.09131 70 ft 106 kts 42°
2026-04-23 16:28 41.18840 29.09803 94 ft 107 kts 46°
2026-04-23 16:28 41.19353 29.10531 101 ft 107 kts 48°
2026-04-23 16:29 41.19863 29.11264 92 ft 108 kts 47°
2026-04-23 16:29 41.20339 29.12016 128 ft 103 kts 56°
2026-04-23 16:29 41.20993 29.12278 218 ft 106 kts 348°
2026-04-23 16:29 41.21495 29.11652 307 ft 93 kts 281°
2026-04-23 16:30 41.21087 29.10978 274 ft 112 kts 197°
2026-04-23 16:30 41.20390 29.10495 136 ft 115 kts 216°
2026-04-23 16:30 41.19763 29.09846 103 ft 113 kts 218°
2026-04-23 16:30 41.19138 29.09203 70 ft 113 kts 216°
2026-04-23 16:31 41.18525 29.08565 94 ft 111 kts 219°
2026-04-23 16:31 41.17937 29.07886 100 ft 112 kts 220°
2026-04-23 16:31 41.17346 29.07214 104 ft 112 kts 219°
2026-04-23 16:31 41.16724 29.06595 110 ft 112 kts 210°
2026-04-23 16:32 41.16018 29.06181 128 ft 110 kts 197°
2026-04-23 16:32 41.15269 29.06003 154 ft 110 kts 180°
2026-04-23 16:32 41.14543 29.06281 143 ft 111 kts 156°
2026-04-23 16:32 41.13850 29.06733 143 ft 110 kts 153°
2026-04-23 16:33 41.13208 29.07263 122 ft 110 kts 150°
2026-04-23 16:33 41.12465 29.07470 97 ft 111 kts 184°
2026-04-23 16:33 41.11773 29.07032 15 ft 112 kts 217°
2026-04-23 16:33 41.11155 29.06416 15 ft 110 kts 216°
2026-04-23 16:34 41.10517 29.05875 46 ft 108 kts 198°
2026-04-23 16:34 41.09763 29.05879 48 ft 109 kts 176°
2026-04-23 16:34 41.09002 29.05950 53 ft 109 kts 181°
2026-04-23 16:34 41.08258 29.05792 21 ft 109 kts 203°
2026-04-23 16:35 41.07587 29.05322 12 ft 109 kts 211°
2026-04-23 16:35 41.06924 29.04834 13 ft 109 kts 207°
2026-04-23 16:35 41.06249 29.04380 17 ft 109 kts 208°
2026-04-23 16:35 41.05571 29.03932 15 ft 109 kts 208°
2026-04-23 16:36 41.04937 29.03417 33 ft 106 kts 221°
2026-04-23 16:36 41.04486 29.02655 30 ft 104 kts 239°
2026-04-23 16:36 41.04068 29.01862 31 ft 106 kts 233°
2026-04-23 16:36 41.03625 29.01090 18 ft 107 kts 234°
2026-04-23 16:37 41.03177 29.00312 34 ft 106 kts 233°
2026-04-23 16:37 41.02631 28.99670 36 ft 106 kts 212°
2026-04-23 16:37 41.01928 28.99379 55 ft 108 kts 184°
2026-04-23 16:37 41.01208 28.99682 29 ft 114 kts 144°
2026-04-23 16:38 41.00632 29.00393 29 ft 114 kts 139°
2026-04-23 16:38 41.00215 29.00931 2 ft 63 kts 139°
2026-04-23 16:38 40.99951 29.01285 1 ft 47 kts 142°
2026-04-23 16:38 40.99757 29.01472 0 ft 23 kts 168°
2026-04-23 16:39 40.99609 29.01556 -1 ft 25 kts 156°
2026-04-23 16:39 40.99484 29.01691 0 ft 34 kts 94°
2026-04-23 16:39 40.99401 29.01989 -1 ft 29 kts 114°
2026-04-23 16:39 40.99352 29.02207 -1 ft 19 kts 150°
2026-04-23 16:40 40.99271 29.02181 -1 ft 13 kts 202°
2026-04-23 16:40 40.99231 29.02131 0 ft 6 kts 307°
2026-04-23 16:40 40.99335 29.02094 0 ft 27 kts 21°
2026-04-23 16:40 40.99363 29.02268 -1 ft 16 kts 185°
2026-04-23 16:41 40.99310 29.02258 0 ft 0 kts 190°